ECHOSTAR 11

Last updated on Sun Jun 21 2026 00:03:04 GMT+0000 (Coordinated Universal Time)

1 33207U 08035A 26171.36017014 -.00000062 00000+0 00000+0 0 9997 2 33207 1.0145 84.1489 0002598 344.4932 219.7890 1.00270893 51243
UTC large
Height (km)
Speed (km/s)
/
Latitude / Longitude
Inclination (degrees)
Orbital Period (minutes)
Azimuth
Elevation
Range (km)
Doppler Factor

Next 0 passes for location: London (51.5072 / 0.1276)

No passes found over London.
ECHOSTAR 11